User: anonymous   Login
Location: Oshawa
(43.9000°N, 78.8670°W)
Time: 01:29:05
(UTC-05:00)
Language:

Cosmos 1805 Rocket - Orbit

View from above orbital plane
View from above orbital plane
View from above satellite
View from above satellite

Ground track
Ground track

The orbit data is extracted from the following two-line orbital elements,

1 17192U 86097B   14352.60666500  .00000659  00000-0  77816-4 0  6354
2 17192 082.5059 031.9132 0016379 220.8410 295.6272 14.83123809513543
Epoch (UTC): 18 December 2014 14:33:35
Eccentricity: 0.0016379
inclination: 82.5059°
perigee height: 608 km
apogee height: 631 km
right ascension of ascending node: 31.9132°
argument of perigee: 220.8410°
revolutions per day: 14.83123809
mean anomaly at epoch: 295.6272°
orbit number at epoch: 51354

The dashed part of the orbit path shows where the satellite is in the earth's shadow,  

DLR